Location: Del Oro Observatory
(38.3044°N, 104.8119°W)
Time: 23:53:45
(UTC-07:00)

Daily predictions for brighter satellites

Satellite Brightness Start Highest point End
(mag) Time Altitude Azimuth Time Altitude Azimuth Time Altitude Azimuth
Cosmos 2263 Rocket 3.2 17:21:42 10° NNW 17:27:14 55° WSW 17:32:41 10° S
Cosmos 1898 Rocket 3.5 17:23:37 10° NNW 17:29:00 79° ENE 17:34:19 10° SSE
Cosmos 2034 Rocket 4.1 17:24:27 10° N 17:30:50 84° E 17:37:13 10° S
IDEFIX/ARIANE 42P 2.7 17:26:20 10° SSE 17:31:31 86° WSW 17:36:47 10° NNW
Cosmos 1151 Rocket 4.5 17:29:05 10° NNE 17:31:47 16° ENE 17:34:29 10° ESE
Atlas Centaur 2 3.4 17:27:27 10° WSW 17:32:02 29° S 17:35:48 10° SE
Cosmos 1844 Rocket 3.3 17:27:33 10° N 17:32:43 35° ENE 17:37:49 10° SE
Cosmos 1076 Rocket 3.8 17:28:33 10° SSW 17:32:46 73° W 17:37:02 10° N
Cosmos 1814 Rocket 4.1 17:28:51 10° SSW 17:34:11 83° ESE 17:39:34 10° NNE
OAO 3 Rocket 3.8 17:29:32 10° W 17:34:20 56° S 17:39:03 10° ESE
BREEZE-M DEB (TANK) 2.0 17:32:25 10° SW 17:36:28 53° SE 17:38:38 10° ENE
SJ-7 4.4 17:32:29 10° SSE 17:36:34 87° ENE 17:40:37 10° N
OTV 4 0.4 17:34:11 10° W 17:37:09 80° S 17:40:05 10° E
USA 215 3.6 17:31:10 10° ESE 17:37:22 47° NE 17:43:34 10° NW
GPS 2-04 Rocket1 4.3 17:34:35 10° W 17:38:37 38° SSW 17:42:36 10° SE
Cosmos 2360 Rocket 3.1 17:36:44 10° SW 17:42:10 50° WNW 17:47:39 10° NNE
Molniya-1 3.7 17:40:47 10° SSW 17:43:08 56° ESE 17:47:05 10° NE
Cosmos 990 Rocket 4.0 17:38:51 10° N 17:44:04 60° ENE 17:49:13 10° SSE
MONITOR-E 4.4 17:41:39 10° SSE 17:44:44 50° ENE 17:47:50 10° N
Cosmos 2221 4.0 17:40:55 10° NNW 17:44:55 40° W 17:48:55 10° SSW
Cosmos 2333 Rocket 2.9 17:44:14 10° SSE 17:49:14 34° ESE 17:54:16 10° NE
Cosmos 2298 Rocket 4.5 17:46:31 10° NNW 17:51:47 68° WSW 17:57:01 10° S
Cosmos 1766 Rocket 4.4 17:49:53 10° SSW 17:54:16 56° W 17:58:40 10° N
MSX 4.0 17:49:36 10° S 17:55:19 81° WSW 18:01:05 10° NNW
Cosmos 841 Rocket 3.5 17:51:23 10° S 17:56:37 72° ESE 18:01:53 10° NNE
Cosmos 2228 Rocket 3.0 17:57:22 10° N 18:01:47 79° E 18:06:12 10° S
COSMO-SKYMED 1 2.5 17:59:26 10° NNE 18:03:47 77° ESE 18:08:06 10° S
YAOGAN 1 3.8 18:00:26 10° S 18:04:35 46° W 18:08:46 10° NNW
Cosmos 1937 Rocket 3.9 18:01:13 10° NNW 18:06:21 66° WSW 18:11:30 10° S
Cosmos 332 Rocket 3.7 18:01:51 10° S 18:06:38 75° ESE 18:11:30 10° NNE
SL-14 R/B 3.8 18:03:49 10° SSE 18:07:22 35° E 18:10:58 10° NNE
Aureole 2 Rocket 4.5 18:05:32 10° SE 18:06:46 14° ESE 18:06:46 14° ESE
Cosmos 2279 Rocket 4.5 18:03:37 10° N 18:09:19 36° ENE 18:14:59 10° SE
Cosmos 1908 3.9 18:06:03 10° NNW 18:09:51 57° W 18:13:41 10° S
Cosmos 2219 Rocket 2.2 18:04:57 10° S 18:10:32 69° ESE 18:16:09 10° NNE
Cosmos 2278 Rocket 2.8 18:08:49 10° N 18:13:56 34° ENE 18:19:02 10° SE
Cosmos 1484 Rocket 3.2 18:10:09 10° S 18:13:59 68° W 18:17:56 10° NNW
Cosmos 2084 3.5 18:10:17 10° SSW 18:14:05 47° ESE 18:16:07 23° ENE
CZ-4 R/B 4.2 18:13:44 10° SW 18:16:39 20° W 18:19:34 10° NW
Cosmos 389 Rocket 4.3 18:13:40 10° NNW 18:16:58 35° W 18:20:13 10° SSW
METEOR-M 4.2 18:15:15 10° SE 18:20:24 51° ENE 18:25:34 10° N
Cosmos 836 Rocket 4.4 18:16:02 10° S 18:21:14 76° ESE 18:26:29 10° NNE
CENTAUR R/B 3.2 18:18:03 10° SW 18:23:56 53° NW 18:30:37 10° NNE
Cosmos 1844 3.7 18:18:11 10° NNW 18:23:57 70° ENE 18:29:43 10° SSE
Meteor 2-10 4.2 18:22:34 10° N 18:27:24 43° ENE 18:32:18 10° SSE
Lacrosse 5 rocket 3.2 18:25:24 10° N 18:26:44 14° NNE 18:26:44 14° NNE
COSMOS 2428 3.7 18:24:02 10° SW 18:29:30 46° WNW 18:35:00 10° N
ALOS 2.9 18:27:22 10° SE 18:31:27 31° ENE 18:35:33 10° N
Hubble Space Telescope 3.1 18:31:27 10° SW 18:34:15 18° S 18:37:03 10° SSE
Abrixas rocket 3.4 18:33:39 10° WNW 18:36:50 42° SW 18:38:58 18° SSE
Cosmos 44 3.5 18:31:51 10° SSW 18:37:04 60° ESE 18:39:28 30° NE
Cosmos 371 Rocket 3.5 18:33:15 10° SSW 18:38:02 72° WNW 18:42:36 11° NNE
Cosmos 2237 Rocket 2.1 18:32:40 10° SSW 18:38:14 70° ESE 18:42:11 20° NNE
Cosmos 1300 2.6 18:36:05 10° N 18:39:56 88° W 18:43:46 10° S
SL-16 R/B 3.0 18:36:42 10° SSE 18:41:29 30° ESE 18:41:29 30° ESE
Lacrosse 5 4.2 18:41:34 10° NW 18:43:59 13° NNW 18:46:26 10° N
SL-19 R/B 4.4 18:40:22 10° SSE 18:46:20 59° ENE 18:51:57 10° N
Cosmos 2058 2.8 18:45:15 10° S 18:49:22 89° W 18:51:51 23° N
Meteor 1-11 4.2 18:45:53 10° S 18:51:32 90° E 18:57:17 10° N
Cosmos 1726 2.8 18:49:39 10° NNW 18:53:21 55° W 18:57:01 10° S
NOAA 12 4.3 18:49:40 10° S 18:54:51 70° WSW 19:00:07 10° NNW
Cosmos 44 Rocket 3.9 18:51:18 10° SW 18:56:22 57° WNW 18:59:13 25° NNE
Cosmos 1805 Rocket 3.5 18:52:47 10° S 18:57:11 65° E 18:57:26 63° ENE
SJ-6B 3.1 18:53:35 10° S 18:57:34 71° WSW 19:01:40 10° NNW
Cosmos 372 Rocket 3.8 18:52:45 10° NNW 18:57:51 69° ENE 19:01:25 20° SSE
Cosmos 783 Rocket 4.5 18:59:10 10° SSW 19:04:28 85° WNW 19:07:01 32° NNE
Cosmos 2151 4.2 19:00:46 10° SSW 19:04:45 41° W 19:08:45 10° N
BREEZE-M DEB (TANK) 4.0 19:03:39 10° WSW 19:04:57 26° W 19:04:57 26° W
FengYun 1-2 T 4.1 19:01:46 10° SSE 19:07:21 77° ENE 19:12:54 10° N
Cosmos 540 Rocket 4.1 19:07:32 10° SW 19:12:35 53° WNW 19:15:49 22° N
OTV 4 2.9 19:10:15 10° W 19:11:32 23° W 19:11:32 23° W
Milstar 3 4.1 19:09:01 10° WSW 19:14:49 32° S 19:19:01 20° SE
Cosmos 1125 Rocket 4.3 19:13:35 10° NNW 19:18:37 51° WSW 19:23:36 10° S
Atlas Centaur 2 3.9 19:18:09 10° SW 19:20:00 12° SSW 19:21:12 11° S
USA 215 4.0 19:13:58 10° SSE 19:20:17 51° SW 19:26:39 10° NW
Resurs 01 Rocket 3.3 19:23:00 25° NNW 19:23:00 25° NNW 19:24:53 10° NNW
Spot 2 Rocket 3.6 19:22:56 10° S 19:27:59 74° WSW 19:33:02 10° NNW
Cosmos 304 Rocket 4.1 19:23:51 10° SSW 19:27:52 61° SW 19:27:52 61° SW
Cosmos 1340 Rocket 4.2 19:26:07 10° SW 19:29:45 37° WNW 19:29:45 37° WNW
CZ-3A R/B 2.8 19:25:37 10° NW 19:29:46 68° N 19:29:46 68° N
Cosmos 2333 Rocket 3.7 19:28:26 10° WSW 19:33:26 32° WNW 19:36:58 17° N
FENGYUN 3A 4.3 19:37:59 10° S 19:43:11 53° W 19:48:27 10° NNW
Cosmos 2278 Rocket 3.8 19:52:57 10° NW 19:57:55 32° WSW 20:02:52 10° SSW
ALOS 4.4 20:05:07 10° SSW 20:08:52 24° W 20:12:39 10° NW
SL-16 R/B 4.0 20:20:19 10° SW 20:23:28 27° W 20:23:28 27° W
